Theta_e
354 354 354 354 356 356 356 357 358 359 359 360 361 361 360 360 359 359 361 363 363 364 364 364 364 364 364 364 363 363 363 363 363 363 362 361 359 358 358 357 357 355 354 353 352 351 350 348 346 344 343 342 342 341 341 342 342 341 340 341 340 340 340
353 353 353 354 355 356 357 358 359 360 359 360 361 361 360 360 360 360 361 363 364 364 364 364 364 364 364 364 364 363 363 363 363 363 362 361 360 360 359 357 357 355 355 353 351 350 350 347 345 343 342 342 341 341 341 342 342 340 339 340 340 340 339
351 353 353 354 356 357 357 358 359 359 359 360 361 360 360 361 361 361 361 363 364 363 364 365 365 364 364 364 364 364 364 364 364 363 362 361 361 360 359 358 356 355 355 353 350 349 348 346 345 343 342 342 341 341 342 342 342 340 339 340 340 340 339
352 352 353 354 356 358 357 358 359 360 358 359 359 360 360 361 361 362 361 363 364 364 364 365 365 364 364 365 364 364 365 364 364 364 363 361 361 360 358 357 356 354 354 352 349 347 346 345 344 343 342 342 342 341 341 341 341 341 340 341 340 340 340
352 352 352 354 355 357 359 357 358 360 359 358 359 360 360 361 361 362 362 362 363 363 363 364 365 365 364 365 365 365 366 365 365 364 363 362 361 359 358 357 355 354 353 351 348 347 346 345 343 343 343 342 341 341 341 341 341 341 341 341 341 341 340
352 352 353 353 353 356 358 356 358 360 358 358 359 360 360 360 360 361 361 362 363 363 363 364 365 365 365 365 364 365 366 366 365 364 363 362 360 359 357 356 355 353 352 350 348 347 346 344 343 342 342 341 340 341 341 341 341 340 341 341 341 341 339
352 354 354 353 353 355 355 356 358 359 358 358 358 359 359 359 360 360 360 362 362 362 363 364 364 365 365 365 364 365 366 366 365 363 362 361 359 358 357 356 354 352 351 350 347 346 345 343 342 341 342 341 338 337 340 341 339 338 339 340 341 340 339
352 355 354 353 353 352 353 355 357 358 358 358 358 359 359 358 360 360 360 361 362 361 362 362 363 365 365 365 365 365 365 365 365 363 362 361 359 358 357 355 353 351 351 349 347 345 344 343 342 342 341 339 336 336 338 340 338 335 337 339 340 339 338
352 356 355 352 351 350 352 354 356 358 358 359 358 359 359 359 359 360 360 360 360 361 361 360 362 364 365 366 365 365 366 365 364 363 361 360 358 356 356 355 353 351 350 349 347 343 340 340 341 340 338 337 338 338 335 335 334 332 335 339 339 339 337
352 356 356 353 350 351 351 353 357 359 359 361 360 359 361 360 359 360 360 360 360 361 361 360 361 363 366 367 365 366 366 365 364 362 361 359 357 355 355 354 353 351 349 349 346 340 336 338 339 337 335 336 339 337 332 332 331 329 333 339 339 338 338
353 356 358 355 353 352 353 355 359 361 362 364 362 361 362 360 360 360 360 360 360 360 361 361 361 362 365 366 366 366 366 365 364 362 360 359 356 354 354 354 353 351 349 348 345 340 338 337 337 336 333 332 333 332 331 333 329 326 333 339 339 337 337
356 358 359 356 355 355 356 359 361 362 364 365 363 363 363 362 361 361 361 361 360 359 361 361 361 362 363 366 366 365 366 365 363 361 360 359 356 354 354 353 352 351 349 347 344 340 338 335 335 334 330 326 329 331 333 332 327 326 331 338 339 336 334
357 359 359 358 357 357 360 363 364 365 366 367 365 364 364 363 362 361 362 362 361 360 361 362 362 362 363 365 366 366 366 365 363 361 360 359 357 354 353 352 351 350 348 347 344 340 338 335 334 332 327 324 327 330 332 330 327 327 330 335 338 335 334
356 356 358 358 359 361 363 365 366 366 367 367 365 365 365 364 363 363 364 363 363 361 361 362 364 364 364 365 365 366 367 366 364 362 360 359 356 354 353 352 350 348 347 346 342 338 337 333 330 327 326 326 327 329 332 330 326 326 328 331 335 337 338
355 354 357 358 360 362 364 365 367 367 366 367 366 365 366 365 365 365 365 365 364 363 362 363 364 365 365 366 366 367 367 366 364 361 359 358 355 353 353 351 348 347 347 346 342 337 335 330 324 323 326 329 329 329 332 331 325 323 327 331 336 339 338
355 352 355 358 360 361 362 364 366 366 366 367 366 366 365 365 365 365 365 365 365 364 364 364 365 366 366 366 367 367 366 365 363 360 359 357 355 353 352 349 347 346 347 347 341 335 334 328 322 324 330 333 332 331 332 331 326 322 326 332 336 338 337
352 351 353 356 359 360 361 363 365 365 366 365 366 366 366 366 366 366 364 366 365 365 364 364 366 367 367 367 367 366 365 364 362 360 358 356 355 353 351 348 346 346 346 345 340 335 332 326 324 331 335 334 333 332 331 330 326 324 326 329 330 332 335
352 353 354 356 359 360 360 361 364 365 364 364 366 368 367 367 367 366 365 365 365 365 364 364 365 367 367 367 367 366 365 362 361 360 357 356 355 354 352 348 345 346 347 344 339 335 331 327 330 336 335 332 333 334 332 330 326 324 324 325 326 328 332
352 353 354 357 360 360 359 361 362 363 364 364 367 367 366 367 367 366 366 365 365 365 364 364 365 366 367 368 367 367 364 361 360 359 357 356 354 353 351 347 345 345 345 343 340 334 330 330 333 334 331 331 335 336 335 333 329 325 325 326 327 328 330
351 353 355 356 358 359 360 360 361 363 365 365 364 365 365 365 365 366 365 365 365 365 364 365 365 366 367 367 366 366 365 362 360 358 357 355 352 351 349 347 345 343 342 342 341 336 333 334 333 330 329 331 334 334 334 335 333 331 331 329 327 327 331
352 354 355 357 358 358 359 360 360 363 364 363 363 364 365 365 364 364 364 365 366 365 365 365 366 366 366 366 366 365 364 362 359 357 357 353 351 350 349 347 345 342 340 341 340 338 336 335 334 332 332 333 333 332 333 334 334 334 334 331 327 328 330
350 351 353 356 356 358 359 359 359 362 363 363 362 363 364 362 361 362 364 365 365 365 365 365 366 366 365 365 365 364 363 361 358 356 356 353 350 349 348 346 344 341 340 340 338 337 336 335 334 334 334 334 333 333 333 333 334 335 335 332 330 328 329
345 348 351 352 353 357 360 358 359 362 363 361 360 359 360 358 358 362 364 364 364 365 365 365 364 364 364 364 364 362 361 359 357 356 355 352 350 348 347 345 343 341 340 338 336 334 333 332 332 332 333 334 334 335 335 335 335 335 334 332 329 327 330
343 345 347 350 353 358 359 357 358 359 359 358 358 358 359 358 360 363 364 363 364 364 364 363 363 364 364 363 362 360 359 356 354 355 354 352 350 348 346 345 342 340 339 337 335 334 333 332 332 332 334 336 336 336 336 335 335 336 335 333 328 327 332
345 346 349 352 354 356 357 357 358 358 359 361 362 362 361 361 361 362 363 363 364 363 363 362 362 363 362 361 360 358 356 353 352 353 353 352 349 347 346 345 342 340 337 335 335 335 334 334 334 334 336 336 336 336 335 335 335 336 336 336 333 331 333
348 348 350 352 354 357 360 360 360 360 362 363 363 363 362 361 361 362 363 363 362 361 361 361 361 361 360 359 358 356 353 351 350 351 352 351 349 347 345 344 342 339 337 335 335 335 335 336 336 336 337 337 337 336 336 336 337 337 337 338 336 334 335
353 353 353 355 358 360 360 360 361 363 363 362 362 361 360 360 362 363 363 362 361 361 361 360 360 359 357 357 355 353 352 350 350 350 350 350 349 346 343 342 340 339 337 337 337 337 337 337 337 337 338 338 338 338 338 338 339 339 339 338 337 335 334
353 355 356 358 359 359 359 361 363 363 362 361 360 360 360 362 363 363 362 361 361 361 360 358 357 356 355 354 352 351 350 349 349 349 348 348 347 345 342 340 339 339 339 339 339 338 338 338 339 339 339 340 340 341 341 341 340 339 339 339 337 334 333
354 355 355 357 358 358 360 362 361 359 358 357 358 359 360 361 361 361 361 361 360 357 356 356 355 354 353 352 350 349 349 348 347 347 346 346 345 344 341 340 340 340 340 340 339 339 339 339 339 340 341 342 343 343 341 341 340 339 338 337 335 332 331
354 353 353 355 356 357 358 358 357 356 355 355 357 358 359 360 361 361 360 359 356 354 355 354 353 352 352 350 349 348 347 347 346 346 345 344 342 342 341 340 340 341 340 340 339 339 339 339 340 341 342 342 343 341 340 339 338 336 335 333 332 330 329
352 352 353 353 355 355 355 355 356 355 355 355 356 357 358 359 361 361 358 355 353 353 354 353 352 351 350 349 348 347 346 346 345 344 344 342 341 342 342 340 341 341 340 340 339 339 339 341 341 342 342 342 342 340 339 338 336 333 331 330 329 329 328
354 354 355 355 355 355 354 355 356 356 356 356 355 356 358 359 360 359 355 353 353 353 352 352 351 351 349 348 347 346 345 345 344 343 343 341 341 342 341 341 341 340 340 340 340 339 340 343 342 342 342 342 342 340 337 336 335 332 330 328 328 328 327
355 355 357 357 357 356 355 356 357 357 357 356 354 354 356 357 357 355 352 352 352 352 351 351 350 349 348 347 347 345 345 344 344 343 342 342 342 341 341 340 341 340 340 340 339 338 340 342 342 342 341 342 341 339 336 335 334 334 332 330 328 327 327
354 355 356 357 358 358 357 357 357 357 356 355 354 353 354 354 353 352 351 351 350 350 351 350 349 348 347 346 346 345 344 344 343 343 342 342 341 341 341 340 340 340 340 339 338 339 340 341 342 342 340 340 340 338 336 334 334 333 333 333 331 329 327
353 354 355 356 357 357 357 358 357 356 355 354 353 353 352 352 350 349 349 349 349 350 350 349 347 347 346 345 345 344 343 343 343 342 342 342 339 338 339 339 339 339 339 338 338 338 338 339 340 340 339 339 338 337 336 335 334 333 332 332 331 330 329
351 352 354 353 354 355 356 356 356 356 354 353 352 352 351 350 349 348 347 347 348 349 349 348 347 346 344 344 344 343 343 343 343 342 343 341 337 335 336 336 337 338 338 337 337 337 336 336 337 337 337 337 337 336 335 334 334 333 332 331 330 329 329
348 350 351 351 351 353 353 353 353 354 353 352 351 350 350 349 348 347 346 346 347 348 349 348 347 346 344 342 342 342 342 342 342 342 342 340 337 336 335 333 334 335 335 335 335 335 334 334 334 335 336 336 335 334 333 332 332 331 330 328 328 327 327
346 347 348 349 351 352 351 351 352 351 350 350 350 350 349 349 348 347 347 346 346 347 348 347 346 345 344 343 342 341 341 341 342 341 341 339 338 337 336 334 332 331 330 331 332 333 333 333 333 334 335 334 333 331 331 330 329 328 328 327 326 326 326
Wind_Speed
16 17 17 16 17 18 18 18 20 22 24 25 26 27 28 27 27 25 24 26 27 26 26 26 26 26 26 26 26 26 26 24 23 22 21 21 20 18 17 16 15 15 14 13 13 14 14 14 14 13 11 10 10 10 9 8 8 7 6 5 5 4 4
15 15 16 17 17 18 19 19 22 23 24 25 25 27 28 27 27 27 26 26 27 27 27 27 27 28 27 26 26 26 26 25 23 21 20 20 20 18 18 17 15 14 14 14 13 13 14 15 14 13 12 11 11 10 10 9 8 8 7 6 6 6 5
14 15 16 17 16 17 19 19 21 24 25 25 26 27 28 28 29 29 27 26 27 27 27 27 29 29 27 26 25 26 27 25 23 22 21 20 20 19 18 17 16 15 15 15 15 14 15 15 14 13 13 12 11 11 10 10 10 9 8 7 7 7 6
14 15 16 17 17 17 18 18 20 24 26 26 27 28 29 29 29 29 28 27 27 28 28 28 29 29 27 26 26 25 25 25 24 23 22 21 20 19 18 18 18 17 16 16 16 15 14 14 14 14 13 12 11 11 11 11 11 10 8 8 8 7 7
15 15 15 16 16 15 16 17 20 24 26 27 28 28 29 30 28 27 27 28 28 30 31 30 28 27 27 26 26 24 24 25 24 23 22 21 20 20 20 20 19 18 17 16 16 15 15 15 15 14 14 12 11 10 11 12 11 9 9 9 8 8 7
13 14 15 15 16 16 17 18 21 25 27 27 28 28 28 28 28 28 28 28 28 29 30 30 28 27 27 27 26 23 22 24 24 24 23 22 22 22 23 21 20 19 18 17 18 17 17 16 15 15 15 14 13 11 12 12 11 11 10 10 10 10 9
12 14 14 15 15 16 17 17 20 25 27 27 27 27 27 27 28 28 28 27 29 29 29 30 30 29 27 27 26 24 23 24 25 25 24 23 24 24 23 22 23 24 21 20 21 20 18 17 17 17 17 17 17 17 16 15 15 14 13 12 12 11 10
11 12 14 14 15 15 16 16 17 21 24 25 25 26 26 26 26 27 27 27 28 29 29 30 30 28 27 25 25 24 25 25 25 25 24 24 24 24 24 25 27 27 23 21 21 20 19 19 20 21 21 21 20 21 22 20 18 17 15 14 14 13 11
10 11 12 13 14 14 14 14 15 19 22 24 24 24 25 25 25 26 27 27 27 28 30 30 29 27 26 24 24 25 25 24 24 25 25 25 25 26 26 24 25 27 26 22 21 22 24 23 24 25 25 22 21 24 25 23 20 18 17 17 16 14 13
8 10 11 12 13 12 12 13 15 16 18 20 22 22 24 24 24 24 25 26 26 28 30 29 27 26 25 24 25 25 25 24 25 25 26 26 26 28 28 24 23 27 28 23 22 26 28 26 26 28 27 24 24 26 27 24 23 21 19 18 17 16 14
7 8 9 11 12 12 13 14 14 14 15 18 21 22 22 23 24 24 24 26 26 27 28 27 26 25 24 24 25 25 25 26 26 26 28 28 26 27 29 26 24 27 28 26 25 28 29 28 28 30 29 28 27 28 28 26 25 24 20 18 18 17 16
7 8 9 11 12 13 13 13 14 14 14 17 21 21 22 23 23 24 24 25 26 25 25 25 25 25 24 23 24 25 26 27 27 27 29 28 26 26 28 27 26 27 29 28 28 29 30 30 32 33 32 31 30 29 29 27 26 25 22 18 18 19 19
7 7 9 11 12 12 13 13 15 15 16 18 21 21 22 23 23 23 23 25 26 24 22 22 23 24 23 22 23 24 26 27 27 27 27 26 26 26 28 28 27 27 28 28 29 31 30 30 34 35 34 34 32 31 30 28 26 25 22 20 20 21 20
8 9 10 11 12 14 15 15 15 16 16 18 21 22 21 22 23 23 23 23 24 23 21 20 21 22 22 21 21 22 23 25 25 24 23 22 23 24 27 27 25 24 26 29 32 33 32 35 39 38 37 36 33 31 30 29 27 25 24 23 22 20 18
9 10 12 14 15 15 15 15 15 16 16 18 20 22 22 22 22 22 22 21 21 21 20 19 19 20 21 20 20 20 20 21 21 20 20 21 21 24 25 24 25 25 29 34 36 35 35 38 40 38 38 37 33 31 31 30 29 28 25 23 20 18 18
10 11 13 15 15 15 16 15 15 16 16 17 20 22 22 22 22 23 22 21 20 20 20 19 19 19 20 20 20 19 18 19 20 20 22 22 23 24 24 25 29 31 35 39 40 40 40 40 40 39 37 33 29 29 30 29 29 28 25 23 19 17 17
11 12 13 14 15 15 15 15 15 16 17 18 20 23 23 22 22 22 21 20 20 20 20 19 18 18 19 19 18 18 18 19 19 20 22 23 24 24 24 27 33 36 37 40 43 43 41 41 39 33 28 26 26 27 28 29 28 26 26 26 23 19 18
12 13 14 14 14 15 16 17 18 18 19 19 22 23 23 21 21 20 20 20 20 19 19 19 18 17 18 17 17 17 18 19 18 18 21 23 24 24 24 28 36 39 39 40 43 44 41 38 34 27 24 25 24 24 25 27 26 24 26 27 24 21 21
12 12 13 14 14 15 17 17 17 18 18 20 22 24 23 22 21 20 21 20 19 19 18 19 18 17 17 17 16 16 18 19 18 18 20 22 22 22 23 27 35 41 37 30 33 41 41 33 27 25 26 24 20 19 19 20 22 25 27 26 22 21 21
10 10 11 12 13 14 15 14 14 16 19 20 22 22 21 21 19 18 18 18 18 18 18 18 17 17 16 15 15 16 17 18 17 18 19 20 20 21 22 25 32 40 37 26 25 33 34 27 21 22 23 22 20 20 18 16 18 24 26 25 22 20 21
9 10 10 11 12 13 14 14 14 15 18 19 20 20 20 19 18 17 17 17 17 18 18 17 16 15 14 15 15 15 16 16 16 16 16 19 22 22 22 24 28 33 33 27 24 24 23 20 19 19 20 20 19 19 19 18 20 23 24 23 22 21 22
10 11 11 11 12 12 13 14 15 16 18 19 19 19 18 18 18 17 17 17 17 16 16 15 15 14 14 14 14 14 14 14 15 15 16 20 23 22 21 23 24 26 25 24 24 22 17 16 17 18 17 18 18 18 19 20 21 22 22 22 22 22 23
10 11 12 12 13 14 15 16 16 16 17 19 20 19 18 18 18 17 16 16 15 14 14 14 13 13 13 13 13 13 13 13 14 14 16 19 23 23 20 21 23 24 23 24 26 23 18 17 17 17 17 17 18 20 21 21 20 19 20 20 21 22 22
8 10 12 12 13 15 18 19 19 18 18 18 19 18 18 18 18 16 15 14 14 13 14 13 12 12 12 12 12 12 12 12 13 14 15 18 22 23 20 21 23 23 22 24 25 22 19 19 17 17 18 20 22 23 23 22 19 18 19 19 20 22 21
9 10 12 13 15 15 17 20 20 20 19 18 18 18 19 19 18 16 14 14 14 14 13 12 12 12 11 11 12 12 11 11 12 14 15 17 21 23 21 21 24 22 20 22 22 19 19 19 18 19 21 23 24 23 22 20 17 16 17 18 20 21 19
10 11 12 14 16 17 18 20 21 21 20 18 18 19 20 19 17 15 14 14 14 13 13 12 12 11 11 11 12 12 11 10 11 13 14 14 18 21 20 19 21 20 20 21 20 18 18 19 19 20 21 20 20 20 19 18 16 15 17 18 18 18 17
10 11 12 14 16 17 18 19 19 19 18 18 18 19 19 18 17 15 15 15 14 14 14 14 13 13 12 12 12 11 11 11 11 12 13 13 15 18 18 17 18 19 19 19 20 19 18 18 18 19 18 17 16 16 15 15 14 14 16 18 17 16 17
12 12 14 16 15 15 16 16 17 18 17 17 18 17 17 18 17 16 15 15 14 14 15 15 15 14 14 13 12 11 11 11 11 12 13 12 13 16 16 16 18 19 18 18 18 18 17 17 16 15 14 14 13 12 11 12 13 14 15 16 17 18 20
13 14 15 16 15 15 16 16 16 17 17 16 16 15 16 17 16 15 14 15 15 14 15 15 15 15 14 13 12 11 11 11 11 12 12 12 14 17 17 15 17 18 17 16 15 16 16 16 15 14 13 11 10 10 10 10 11 14 17 18 17 19 21
14 14 15 16 17 18 18 16 16 16 15 14 14 13 13 14 15 15 15 15 14 14 15 15 14 15 14 12 12 11 11 11 11 12 12 12 14 17 18 16 16 16 15 15 14 15 15 15 14 13 11 8 8 8 9 8 8 12 16 17 16 17 20
15 15 16 16 17 18 18 17 17 16 14 13 12 12 12 12 14 16 16 14 14 14 14 14 14 14 13 11 11 10 10 10 11 12 12 12 14 17 17 17 16 15 14 14 14 15 15 13 13 11 8 7 8 8 8 8 9 10 12 14 14 15 17
14 14 15 15 15 15 17 18 18 17 16 13 11 11 12 12 13 15 15 14 14 13 13 14 13 12 11 10 10 10 10 10 11 12 13 12 13 15 15 16 16 15 14 14 14 15 14 12 11 10 8 6 8 8 7 7 8 8 9 12 16 16 16
14 14 14 13 12 13 14 14 14 15 16 14 12 11 12 12 13 14 15 14 14 13 14 13 13 11 10 9 9 10 10 10 10 11 12 12 12 13 14 15 15 14 13 13 15 15 13 11 9 9 7 6 7 8 8 8 9 8 8 11 14 15 14
14 13 14 14 13 13 13 12 12 13 13 13 12 11 11 12 12 13 13 13 13 14 14 13 12 11 10 9 9 10 10 10 10 10 10 11 10 10 11 12 13 12 11 12 13 12 11 9 8 8 7 5 6 9 10 10 11 11 10 10 11 11 12
13 13 14 14 14 14 14 13 12 12 12 12 11 11 11 11 11 12 12 12 12 13 13 13 12 11 10 9 9 10 10 10 10 10 10 10 8 8 9 10 11 11 10 9 9 10 9 8 7 6 6 5 7 11 13 13 14 13 13 12 13 13 12
13 13 14 14 14 14 14 13 12 12 12 10 9 9 10 10 10 10 10 11 11 11 12 13 11 10 10 10 9 10 10 10 10 11 10 10 10 9 9 9 10 11 10 9 10 12 12 11 8 6 5 5 7 11 12 11 12 14 15 16 17 17 16
12 12 13 13 13 13 13 12 11 11 10 9 8 8 9 9 9 9 9 9 9 9 11 11 10 9 10 9 9 11 11 10 11 11 10 9 9 10 9 8 9 11 11 12 14 14 14 13 11 9 9 7 5 8 10 8 8 10 12 15 18 19 18
14 13 12 12 12 11 11 10 10 9 9 8 7 8 8 8 8 7 7 8 8 8 9 9 8 9 9 8 9 11 11 10 10 11 10 9 9 9 9 8 8 8 9 11 12 13 12 11 10 11 14 12 7 7 9 8 7 8 10 13 16 17 16
Wind_Direction
199 197 196 195 193 192 192 192 191 192 193 192 191 191 192 194 194 195 196 197 198 201 202 203 204 206 209 210 211 212 214 214 214 215 217 221 226 224 221 220 215 214 216 219 219 211 203 201 200 202 207 209 209 206 204 206 206 210 218 225 226 228 234
202 199 196 195 196 195 192 188 189 192 192 192 191 191 192 192 192 195 196 196 197 200 201 202 204 207 209 209 209 211 213 213 212 212 214 218 221 218 214 215 212 210 213 215 213 205 200 198 199 202 206 208 209 207 205 206 208 212 220 225 226 226 231
203 201 197 196 197 196 193 188 188 191 191 191 191 192 193 192 192 195 195 195 196 199 200 202 205 208 208 207 209 211 212 211 209 208 210 213 212 209 209 212 212 211 212 211 207 201 199 199 199 202 205 206 206 205 205 204 204 211 222 226 227 229 231
201 200 198 198 198 197 194 190 189 190 191 191 191 192 192 192 193 194 194 195 195 196 200 203 205 207 207 205 207 209 209 208 207 207 208 208 206 205 205 208 210 211 210 207 204 200 199 198 198 201 202 203 204 205 205 203 200 206 218 225 228 231 232
199 198 197 199 198 196 195 194 192 190 191 192 192 191 191 192 193 193 195 196 196 198 202 203 204 206 206 205 207 208 206 205 206 206 205 205 202 202 207 210 208 206 205 203 200 197 195 195 196 198 199 202 205 205 205 203 203 205 210 218 224 228 230
198 195 197 199 197 196 195 196 195 192 191 191 191 191 192 192 193 195 196 196 198 200 202 203 204 205 205 206 206 205 202 202 203 203 203 201 200 204 210 209 203 201 200 196 195 195 194 195 195 197 199 199 198 198 202 203 206 207 204 211 221 222 225
197 194 197 197 197 198 196 195 195 194 192 191 190 190 192 193 194 197 197 197 198 200 201 204 205 205 205 205 204 201 199 200 200 202 201 200 203 208 208 205 206 206 200 194 197 196 192 191 195 200 201 198 194 195 198 200 206 209 203 208 220 220 220
199 194 196 196 197 198 195 194 194 192 191 191 190 190 192 193 195 196 197 198 200 201 204 207 207 205 205 203 201 200 200 199 199 200 200 200 202 204 205 210 213 208 199 195 197 194 189 189 195 202 204 202 200 197 197 200 206 210 207 208 217 219 217
200 195 197 197 198 199 195 193 190 187 188 190 191 191 190 192 194 196 197 198 200 203 206 208 207 205 203 201 199 199 199 198 197 199 199 200 200 201 206 210 207 205 203 196 193 195 197 197 199 205 207 206 205 203 201 202 204 209 213 213 214 215 216
193 192 196 198 198 197 192 188 184 184 185 188 190 189 189 191 193 194 196 199 201 205 207 208 207 205 202 200 200 198 197 196 197 199 200 201 201 202 205 203 198 204 205 195 192 201 204 202 204 208 207 206 209 209 207 203 199 202 212 220 219 216 217
182 184 190 196 197 193 189 184 180 180 181 183 185 187 188 189 191 193 196 200 203 206 207 206 205 204 201 201 201 197 195 197 198 199 201 203 202 200 201 200 196 199 199 192 192 199 201 202 205 207 208 210 212 213 210 205 199 197 205 220 226 222 222
173 176 183 191 192 191 189 183 179 178 178 179 182 184 185 186 190 193 196 201 205 207 206 204 204 203 202 201 201 197 196 197 199 202 204 204 201 197 196 198 195 192 193 192 192 197 200 203 205 206 209 211 211 212 211 207 202 200 204 216 228 231 233
174 175 180 185 187 188 186 183 181 179 176 177 180 182 183 186 189 192 196 201 205 206 205 203 202 202 202 203 202 198 197 199 201 204 205 202 200 195 195 199 195 189 189 191 193 197 199 200 204 207 211 211 207 207 210 208 207 205 208 219 233 239 240
180 180 178 181 186 189 188 186 182 180 178 177 180 181 182 186 190 192 196 200 202 204 203 200 199 200 202 204 204 200 199 201 203 204 204 201 198 197 198 197 188 181 188 195 198 198 197 200 205 207 210 211 206 203 206 208 210 210 212 222 234 238 238
195 191 183 183 187 191 194 192 184 180 180 178 179 181 182 187 190 192 196 198 199 201 200 198 197 200 202 203 205 204 201 202 203 205 208 205 198 196 196 185 174 182 203 209 205 201 200 204 207 206 208 211 208 205 206 208 212 215 217 223 229 232 237
212 204 195 190 188 189 196 196 187 180 178 178 180 182 184 187 190 192 194 195 196 197 197 197 197 199 202 204 206 205 204 205 205 207 210 208 201 197 191 180 181 198 216 216 208 204 205 207 208 207 206 207 208 208 209 210 213 217 221 226 230 231 238
221 216 207 199 191 187 191 194 187 180 179 180 181 182 184 186 187 189 191 192 193 194 194 195 196 199 203 206 206 205 208 210 208 206 207 205 203 199 191 187 193 205 217 217 209 207 208 208 208 204 198 200 207 213 215 215 216 219 225 233 239 242 245
226 219 210 202 191 185 187 190 186 181 180 181 181 182 183 182 181 184 187 188 189 190 191 194 197 200 204 207 206 203 209 213 208 205 205 204 205 203 195 193 199 206 214 215 210 208 207 207 205 198 191 197 208 215 218 220 220 223 231 238 244 249 253
234 225 214 203 192 186 188 189 186 182 180 180 181 183 181 179 179 182 184 184 183 185 188 192 197 201 203 206 204 200 206 211 208 206 207 207 207 204 195 192 199 206 210 210 208 208 206 202 200 196 195 200 208 214 219 222 225 231 238 242 246 251 255
238 231 219 206 195 189 187 187 184 180 178 180 181 180 178 178 178 177 177 178 178 181 186 189 194 199 202 203 202 199 200 203 204 207 207 204 204 201 195 194 199 205 207 205 206 206 201 194 190 192 199 207 213 219 223 225 231 238 242 245 248 250 253
223 220 215 204 195 187 181 181 181 175 175 178 177 173 171 173 173 172 173 175 177 180 184 187 190 195 199 200 198 199 196 194 201 207 200 196 200 201 201 201 199 201 205 206 205 200 191 186 186 190 201 210 215 222 226 227 232 239 243 246 249 249 253
212 207 202 195 190 184 178 178 176 170 167 167 166 166 168 171 173 172 172 174 177 178 180 184 188 191 196 197 193 194 192 190 199 203 194 196 201 202 204 206 200 197 201 203 199 193 185 186 190 193 202 210 216 223 228 230 233 236 241 248 250 249 252
213 201 192 187 183 177 170 166 165 164 162 161 163 166 168 170 170 167 166 169 173 175 176 180 186 188 191 191 187 187 187 190 200 198 190 196 202 201 204 206 200 197 200 200 196 192 191 193 198 204 210 214 218 224 231 234 234 234 242 250 250 247 247
207 193 184 178 174 168 164 162 160 160 161 161 160 159 158 160 159 155 156 162 166 169 171 175 181 183 184 183 180 179 181 191 204 200 190 195 202 203 206 205 199 196 198 196 192 191 194 197 202 212 219 221 223 226 233 235 233 235 246 253 250 245 239
182 173 167 164 163 163 159 154 149 149 153 151 146 144 145 147 149 148 149 155 161 164 164 167 172 175 175 174 171 172 177 189 202 202 196 198 202 205 207 205 201 197 194 190 186 186 194 199 205 215 223 228 229 230 232 234 234 238 246 251 248 241 230
163 158 158 156 154 151 144 139 139 143 146 142 137 137 139 141 143 145 146 151 157 156 154 157 162 163 162 161 163 167 172 183 196 202 200 198 199 204 207 204 199 195 190 188 189 194 200 203 210 219 225 230 231 228 226 229 235 242 247 247 245 236 220
146 144 142 137 136 138 136 134 136 137 136 135 134 134 136 138 140 140 143 148 149 145 145 149 151 150 149 150 157 165 170 179 190 196 199 197 193 196 202 203 197 190 186 188 194 199 203 205 212 220 223 224 224 222 223 229 238 247 248 244 241 228 210
132 126 121 117 122 131 132 127 123 119 119 123 127 130 134 136 134 137 142 144 139 137 140 143 142 141 142 146 154 164 172 179 183 187 193 194 186 186 193 199 197 193 192 194 195 196 201 207 211 214 214 215 216 220 228 238 241 241 240 241 238 225 209
119 116 115 114 115 116 112 107 105 106 110 116 119 125 132 133 132 135 137 132 129 133 135 136 137 138 140 144 152 161 170 174 177 181 186 190 190 189 190 191 193 195 197 199 198 199 204 208 205 202 205 206 210 221 231 237 237 232 232 238 235 218 206
100 102 104 104 103 101 99 96 97 100 102 106 111 117 124 128 128 127 124 123 127 131 131 133 137 138 139 144 151 159 164 167 173 181 183 188 195 194 190 188 190 191 191 195 201 202 203 202 197 196 202 201 199 211 222 226 229 231 232 233 223 207 200
89 90 92 93 95 98 101 103 103 102 100 101 106 108 112 119 122 119 118 121 127 129 131 135 136 135 136 141 148 155 159 162 172 183 188 191 195 194 191 189 190 189 187 192 201 200 195 193 191 190 191 190 188 197 213 223 226 225 223 216 203 196 197
82 82 86 90 94 101 109 112 112 110 107 106 106 105 105 108 112 113 116 122 127 129 132 133 131 130 133 138 143 151 158 162 173 185 192 194 194 194 193 191 190 191 193 195 199 197 191 186 185 184 184 187 187 188 199 215 218 212 204 198 194 196 201
78 76 77 79 83 93 101 105 108 110 109 106 102 99 98 98 102 110 118 125 129 130 130 129 128 128 132 137 143 150 159 166 173 184 192 193 194 195 197 196 194 195 199 201 200 196 190 184 182 187 193 195 186 178 181 200 212 212 201 190 190 196 202
79 78 76 73 74 80 84 84 87 92 95 96 95 95 96 97 104 115 123 127 129 129 128 127 128 129 132 137 142 150 163 171 174 181 188 190 192 194 194 196 200 202 206 209 204 196 190 188 191 200 211 213 182 170 178 194 205 208 203 193 188 191 194
79 76 75 72 69 72 77 80 82 84 86 89 91 96 100 103 111 120 124 124 126 128 128 130 132 131 132 137 141 151 167 173 173 181 184 172 166 174 178 183 196 204 207 206 200 195 194 196 202 210 224 223 187 177 188 200 203 202 199 195 194 193 190
79 77 76 77 76 74 75 77 81 84 87 89 93 99 103 105 111 118 121 123 128 131 130 133 136 133 135 144 151 156 169 176 175 183 182 160 151 162 168 169 185 197 198 194 196 202 206 211 216 217 213 205 185 184 191 194 195 199 201 202 203 200 194
75 79 80 80 80 79 77 76 78 81 85 88 92 96 100 103 109 114 117 120 126 130 129 133 139 139 145 157 154 150 164 175 169 169 168 153 153 168 168 164 181 198 205 206 207 211 216 221 222 212 199 189 177 187 193 186 182 195 203 205 205 203 200
64 68 75 79 80 81 81 80 81 83 86 88 91 93 96 102 107 111 115 117 121 127 132 139 147 147 150 154 142 141 158 169 159 157 160 160 169 177 171 166 176 190 204 214 215 216 218 216 210 200 199 198 187 185 201 208 206 201 195 193 196 199 203